When you browse on this site, cookies collect data to enhance your experience and personalize the content and advertising you see.
Visit our Privacy Policy to learn more. By continuing to use the site, you agree to this use of cookies and data.
  • In Spain
  • List of Countries
  • For 7 days
  • Water Temperature
  • Satellite Maps
  • Weather Map
  • Weather Widgets
  • user-avatar
    Login

    Hourly Weather Kalyan

    Today, 17 July, Wednesday

    Time Temperature Precipitation Wind Pressure Humidity
    00:00 +29°C° 0.3 mm 2 mps 753 mmHg 81%
    01:00 +29°C° 0.3 mm 2 mps 753 mmHg 81%
    02:00 +29°C° 0.3 mm 2 mps 753 mmHg 81%
    03:00 +29°C° 0.2 mm 2 mps 753 mmHg 82%
    04:00 +29°C° 0.2 mm 2 mps 753 mmHg 83%
    05:00 +29°C° 0 mm 1 mps 753 mmHg 85%
    06:00 +30°C° 0.3 mm 2 mps 753 mmHg 82%
    07:00 +30°C° 0.3 mm 2 mps 753 mmHg 78%
    08:00 +31°C° 0.3 mm 2 mps 753 mmHg 74%
    09:00 +33°C° 0.4 mm 3 mps 753 mmHg 71%
    10:00 +34°C° 0.4 mm 4 mps 753 mmHg 67%
    11:00 +35°C° 0 mm 4 mps 754 mmHg 63%
    12:00 +35°C° 0.5 mm 4 mps 753 mmHg 62%
    13:00 +35°C° 0.5 mm 4 mps 753 mmHg 61%
    14:00 +35°C° 0.5 mm 5 mps 752 mmHg 60%
    15:00 +35°C° 0.3 mm 5 mps 752 mmHg 62%
    16:00 +34°C° 0.3 mm 4 mps 752 mmHg 64%
    17:00 +34°C° 0.3 mm 4 mps 751 mmHg 66%
    18:00 +33°C° 0.2 mm 4 mps 752 mmHg 69%
    19:00 +31°C° 0.2 mm 3 mps 752 mmHg 73%
    20:00 +30°C° 0.2 mm 2 mps 753 mmHg 76%
    21:00 +30°C° 0.1 mm 2 mps 753 mmHg 77%
    22:00 +30°C° 0.1 mm 2 mps 753 mmHg 79%
    23:00 +29°C° 0.1 mm 2 mps 753 mmHg 80%

    Tomorrow, 18 July, Thursday

    Time Temperature Precipitation Wind Pressure Humidity
    00:00 +29°C° 0.3 mm 2 mps 753 mmHg 81%
    01:00 +29°C° 0.3 mm 2 mps 752 mmHg 83%
    02:00 +29°C° 0.3 mm 2 mps 752 mmHg 84%
    03:00 +29°C° 0.3 mm 2 mps 752 mmHg 84%
    04:00 +28°C° 0.3 mm 2 mps 752 mmHg 85%
    05:00 +28°C° 0.3 mm 2 mps 752 mmHg 85%
    06:00 +29°C° 0.3 mm 2 mps 752 mmHg 82%
    07:00 +30°C° 0.3 mm 2 mps 752 mmHg 79%
    08:00 +30°C° 0.3 mm 2 mps 752 mmHg 76%
    09:00 +31°C° 0.3 mm 2 mps 753 mmHg 72%
    10:00 +33°C° 0.3 mm 3 mps 753 mmHg 68%
    11:00 +34°C° 0.3 mm 3 mps 753 mmHg 65%
    12:00 +34°C° 0.2 mm 4 mps 752 mmHg 63%
    13:00 +34°C° 0.2 mm 4 mps 752 mmHg 62%
    14:00 +35°C° 0.2 mm 5 mps 751 mmHg 61%
    15:00 +34°C° 0.1 mm 4 mps 751 mmHg 62%
    16:00 +34°C° 0.1 mm 4 mps 751 mmHg 63%
    17:00 +33°C° 0.1 mm 4 mps 750 mmHg 65%
    18:00 +33°C° 0.1 mm 3 mps 751 mmHg 69%
    19:00 +31°C° 0.1 mm 3 mps 751 mmHg 73%
    20:00 +30°C° 0.1 mm 2 mps 752 mmHg 77%
    21:00 +30°C° 0.1 mm 2 mps 752 mmHg 79%
    22:00 +29°C° 0.1 mm 1 mps 752 mmHg 80%
    23:00 +29°C° 0.1 mm 1 mps 752 mmHg 81%

    Day after tomorrow, 19 July, Friday

    Time Temperature Precipitation Wind Pressure Humidity
    00:00 +29°C° 0.2 mm 1 mps 752 mmHg 81%
    01:00 +29°C° 0.2 mm 1 mps 751 mmHg 82%
    02:00 +29°C° 0.2 mm 1 mps 751 mmHg 82%
    03:00 +29°C° 0.2 mm 1 mps 751 mmHg 83%
    04:00 +28°C° 0.2 mm 1 mps 751 mmHg 83%
    05:00 +28°C° 0.2 mm 1 mps 751 mmHg 84%
    06:00 +29°C° 0.1 mm 1 mps 751 mmHg 81%
    07:00 +29°C° 0.1 mm 1 mps 751 mmHg 78%
    08:00 +30°C° 0.1 mm 1 mps 752 mmHg 75%
    09:00 +31°C° 0.1 mm 1 mps 752 mmHg 71%
    10:00 +32°C° 0.1 mm 2 mps 752 mmHg 67%
    11:00 +34°C° 0.1 mm 2 mps 752 mmHg 63%
    12:00 +34°C° 0.1 mm 2 mps 751 mmHg 61%
    13:00 +35°C° 0.1 mm 3 mps 751 mmHg 59%
    14:00 +35°C° 0.1 mm 3 mps 750 mmHg 57%
    15:00 +35°C° 0 mm 3 mps 750 mmHg 59%
    16:00 +34°C° 0 mm 3 mps 750 mmHg 62%
    17:00 +34°C° 0 mm 4 mps 749 mmHg 64%
    18:00 +33°C° 0 mm 3 mps 750 mmHg 69%
    19:00 +31°C° 0 mm 2 mps 750 mmHg 73%
    20:00 +30°C° 0 mm 2 mps 751 mmHg 77%
    21:00 +30°C° 0 mm 1 mps 751 mmHg 78%
    22:00 +30°C° 0 mm 1 mps 751 mmHg 80%
    23:00 +30°C° 0 mm 1 mps 751 mmHg 81%

    20 July, Saturday

    Time Temperature Precipitation Wind Pressure Humidity
    00:00 +29°C° 0 mm 1 mps 751 mmHg 82%
    01:00 +29°C° 0 mm 1 mps 751 mmHg 83%
    02:00 +29°C° 0 mm 1 mps 750 mmHg 84%
    03:00 +29°C° 0 mm 1 mps 750 mmHg 84%
    04:00 +29°C° 0 mm 1 mps 750 mmHg 85%
    05:00 +29°C° 0 mm 1 mps 750 mmHg 85%
    06:00 +29°C° 0 mm 1 mps 751 mmHg 82%
    07:00 +30°C° 0 mm 1 mps 751 mmHg 79%
    08:00 +30°C° 0 mm 1 mps 752 mmHg 77%
    09:00 +30°C° 0 mm 1 mps 752 mmHg 76%
    10:00 +31°C° 0 mm 1 mps 752 mmHg 75%
    11:00 +31°C° 0 mm 2 mps 752 mmHg 74%
    12:00 +30°C° 0.8 mm 2 mps 752 mmHg 76%
    13:00 +30°C° 0.8 mm 2 mps 751 mmHg 79%
    14:00 +29°C° 0.8 mm 2 mps 751 mmHg 81%
    15:00 +29°C° 0.8 mm 2 mps 751 mmHg 82%
    16:00 +29°C° 0.8 mm 1 mps 750 mmHg 82%
    17:00 +29°C° 0.8 mm 1 mps 750 mmHg 82%
    18:00 +28°C° 0.1 mm 1 mps 750 mmHg 83%
    19:00 +28°C° 0.1 mm 1 mps 751 mmHg 85%
    20:00 +28°C° 0.1 mm 1 mps 751 mmHg 86%
    21:00 +28°C° 0.6 mm 1 mps 751 mmHg 87%
    22:00 +26°C° 0.6 mm 0 mps 751 mmHg 87%
    23:00 +26°C° 0.6 mm 0 mps 751 mmHg 88%

    21 July, Sunday

    Time Temperature Precipitation Wind Pressure Humidity
    00:00 +27°C° 1.3 mm 1 mps 751 mmHg 89%
    01:00 +27°C° 1.3 mm 1 mps 750 mmHg 90%
    02:00 +27°C° 1.3 mm 1 mps 750 mmHg 91%
    03:00 +27°C° 1.1 mm 1 mps 750 mmHg 92%
    04:00 +27°C° 1.1 mm 1 mps 750 mmHg 92%
    05:00 +27°C° 1.1 mm 1 mps 750 mmHg 92%
    06:00 +25°C° 0.6 mm 0 mps 750 mmHg 92%
    07:00 +25°C° 0.6 mm 0 mps 751 mmHg 91%
    08:00 +25°C° 0.6 mm 0 mps 751 mmHg 90%
    09:00 +25°C° 0.2 mm 0 mps 751 mmHg 87%
    10:00 +26°C° 0.2 mm 0 mps 751 mmHg 85%
    11:00 +26°C° 0.2 mm 0 mps 751 mmHg 83%
    12:00 +27°C° 0 mm 0 mps 751 mmHg 80%
    13:00 +30°C° 0 mm 1 mps 750 mmHg 76%
    14:00 +30°C° 0 mm 1 mps 750 mmHg 73%
    15:00 +31°C° 0 mm 1 mps 749 mmHg 72%
    16:00 +31°C° 0 mm 1 mps 749 mmHg 71%
    17:00 +31°C° 0 mm 1 mps 748 mmHg 70%
    18:00 +31°C° 0 mm 1 mps 749 mmHg 74%
    19:00 +30°C° 0 mm 1 mps 749 mmHg 77%
    20:00 +29°C° 0 mm 1 mps 750 mmHg 81%
    21:00 +29°C° 0 mm 1 mps 750 mmHg 82%
    22:00 +29°C° 0 mm 1 mps 750 mmHg 82%
    23:00 +29°C° 0 mm 1 mps 750 mmHg 83%

    22 July, Monday

    Time Temperature Precipitation Wind Pressure Humidity
    00:00 +29°C° 0 mm 1 mps 750 mmHg 84%
    01:00 +29°C° 0 mm 1 mps 750 mmHg 84%
    02:00 +28°C° 0 mm 1 mps 749 mmHg 85%
    03:00 +28°C° 0 mm 1 mps 749 mmHg 86%
    04:00 +28°C° 0 mm 1 mps 749 mmHg 86%
    05:00 +28°C° 0 mm 1 mps 749 mmHg 87%
    06:00 +28°C° 0 mm 1 mps 750 mmHg 84%
    07:00 +29°C° 0 mm 1 mps 750 mmHg 82%
    08:00 +29°C° 0 mm 1 mps 750 mmHg 79%
    09:00 +30°C° 0.1 mm 1 mps 750 mmHg 75%
    10:00 +31°C° 0.1 mm 2 mps 751 mmHg 72%
    11:00 +32°C° 0.1 mm 2 mps 751 mmHg 68%
    12:00 +32°C° 0.1 mm 2 mps 750 mmHg 66%
    13:00 +34°C° 0.1 mm 3 mps 749 mmHg 65%
    14:00 +34°C° 0.1 mm 3 mps 749 mmHg 63%
    15:00 +34°C° 0.1 mm 3 mps 748 mmHg 65%
    16:00 +34°C° 0.1 mm 3 mps 748 mmHg 67%
    17:00 +33°C° 0.1 mm 3 mps 748 mmHg 69%
    18:00 +33°C° 0 mm 3 mps 748 mmHg 72%
    19:00 +31°C° 0 mm 3 mps 749 mmHg 76%
    20:00 +30°C° 0 mm 2 mps 749 mmHg 79%
    21:00 +30°C° 0.2 mm 2 mps 749 mmHg 81%
    22:00 +30°C° 0.2 mm 2 mps 750 mmHg 82%
    23:00 +29°C° 0.2 mm 2 mps 750 mmHg 84%
    Show more